Weather History for Kenosha, WI

Change the Weather History Date:

Monday, July 29, 2013

  Actual Average Record
Temperature  
Mean Temperature 62 °F -  
Max Temperature 70 °F 78 °F 99 °F (1999)
Min Temperature 53 °F 60 °F 46 °F (2003)
Degree Days  
Heating Degree Days 4    
Growing Degree Days 12 (Base 50)    
Moisture  
Dew Point 54 °F    
Average Humidity 74    
Maximum Humidity 93    
Minimum Humidity 58    
Precipitation  
Precipitation 0.00 in - - ()
Sea Level Pressure  
Sea Level Pressure 30.13 in    
Wind  
Wind Speed 5 mph (NW)    
Max Wind Speed 9 mph    
Max Gust Speed -    
Visibility 10 miles    
Events      
Averages and records for this station are not official NWS values.
T = Trace of Precipitation, MM = Missing Value Source: NWS Daily Summary

Daily Weather History Graph

Daily Weather History Graph

Search for Another Location

Airport:

Trip Planner

Search our weather history database for the weather conditions in past years. The results will help you decide how hot, cold, wet, or windy it might be!

Date:

Astronomy

Jul. 29, 2013 Rise Set
Actual Time 5:40 AM CDT 8:14 PM CDT
Civil Twilight 5:08 AM CDT 8:47 PM CDT
Nautical Twilight 4:28 AM CDT 9:27 PM CDT
Astronomical Twilight 3:42 AM CDT 10:12 PM CDT
Moon No Moon Rise 1:34 PM CDT (7/29)
Length of Visible Light 15h 38m
Length of Day
14h 34m
Waning Gibbous, 50% of the Moon is Illuminated
Jul 29
Waning Gibbous
Jul 29
Last Quarter
Aug 6
New
Aug 14
First Quarter
Aug 20
Full

Hourly Weather History & Observations

Time (CDT) Temp. Dew Point Humidity Pressure Visibility Wind Dir Wind Speed Gust Speed Precip Events Conditions
12:53 AM 60.1 °F 52.0 °F 75% 30.01 in 10.0 mi West 6.9 mph - N/A   Overcast
1:53 AM 60.1 °F 53.1 °F 78% 30.01 in 10.0 mi West 8.1 mph - N/A   Overcast
2:53 AM 59.0 °F 52.0 °F 78% 30.02 in 10.0 mi WNW 6.9 mph - N/A   Mostly Cloudy
3:53 AM 54.0 °F 51.1 °F 90% 30.04 in 10.0 mi West 3.5 mph - N/A   Clear
4:53 AM 53.1 °F 50.0 °F 89% 30.05 in 10.0 mi West 4.6 mph - N/A   Clear
5:53 AM 53.1 °F 50.0 °F 89% 30.06 in 10.0 mi West 3.5 mph - N/A   Clear
6:53 AM 55.9 °F 53.1 °F 90% 30.09 in 10.0 mi West 5.8 mph - N/A   Clear
7:53 AM 61.0 °F 54.0 °F 78% 30.11 in 10.0 mi WNW 4.6 mph - N/A   Mostly Cloudy
8:53 AM 62.1 °F 53.1 °F 72% 30.13 in 10.0 mi WNW 3.5 mph - N/A   Mostly Cloudy
9:53 AM 63.0 °F 52.0 °F 67% 30.14 in 10.0 mi NW 3.5 mph - N/A   Overcast
10:53 AM 64.9 °F 53.1 °F 65% 30.15 in 10.0 mi Variable 3.5 mph - N/A   Mostly Cloudy
11:53 AM 68.0 °F 54.0 °F 61% 30.15 in 10.0 mi Calm Calm - N/A   Mostly Cloudy
12:00 PM 68.0 °F 53.6 °F 60% 30.15 in 10.0 mi West 4.6 mph - N/A   Partly Cloudy
12:24 PM 68.0 °F 53.6 °F 60% 30.16 in 10.0 mi NNW 4.6 mph - N/A   Mostly Cloudy
12:51 PM 68.0 °F 53.6 °F 60% 30.16 in 10.0 mi Calm Calm - N/A   Mostly Cloudy
12:53 PM 69.1 °F 54.0 °F 58% 30.15 in 10.0 mi Calm Calm - N/A   Mostly Cloudy
1:53 PM 70.0 °F 57.0 °F 63% 30.16 in 10.0 mi East 5.8 mph - N/A   Partly Cloudy
2:53 PM 70.0 °F 57.9 °F 65% 30.15 in 10.0 mi ENE 5.8 mph - N/A   Partly Cloudy
3:53 PM 69.1 °F 57.0 °F 65% 30.16 in 10.0 mi East 9.2 mph - N/A   Partly Cloudy
4:53 PM 66.9 °F 55.9 °F 68% 30.17 in 10.0 mi East 9.2 mph - N/A   Clear
5:53 PM 66.0 °F 55.9 °F 70% 30.18 in 10.0 mi ESE 5.8 mph - N/A   Clear
6:53 PM 66.0 °F 55.9 °F 70% 30.17 in 10.0 mi ESE 9.2 mph - N/A   Clear
7:53 PM 64.0 °F 55.9 °F 75% 30.18 in 10.0 mi ESE 8.1 mph - N/A   Clear
8:53 PM 62.1 °F 55.9 °F 80% 30.19 in 10.0 mi East 5.8 mph - N/A   Clear
9:53 PM 61.0 °F 55.9 °F 83% 30.20 in 10.0 mi ESE 3.5 mph - N/A   Clear
10:53 PM 57.9 °F 55.0 °F 90% 30.19 in 10.0 mi Calm Calm - N/A   Clear
11:53 PM 55.9 °F 54.0 °F 93% 30.20 in 10.0 mi Calm Calm - N/A   Clear